| time (UTC) | temp F | wind direction | speed MPH | gust MPH | rain 1hr in | rain 24hr in | rain mn in | humidity % | barometer mb |
| 20260905211546 | 64 | 159 | 0.0 | 0.0 | 0.00 | 0.00 | 0.00 | 48 | 1018.9 |
| 20260905210051 | 64 | 174 | 0.0 | 0.0 | 0.00 | 0.00 | 0.00 | 49 | 1019.0 |
| 20260905204547 | 65 | 245 | 0.0 | 0.0 | 0.00 | 0.00 | 0.00 | 48 | 1019.1 |
| 20260905203045 | 65 | 173 | 0.0 | 3.0 | 0.00 | 0.00 | 0.00 | 51 | 1018.9 |
| 20260905201553 | 65 | 212 | 0.0 | 0.0 | 0.00 | 0.00 | 0.00 | 51 | 1019.1 |
| 20260905200044 | 65 | 291 | 0.0 | 1.0 | 0.00 | 0.00 | 0.00 | 52 | 1019.1 |
| 20260905194535 | 63 | 187 | 0.0 | 0.0 | 0.00 | 0.00 | 0.00 | 56 | 1019.2 |
| 20260905193033 | 63 | 202 | 0.0 | 0.0 | 0.00 | 0.00 | 0.00 | 55 | 1019.4 |
| 20260905191531 | 62 | 202 | 0.0 | 1.0 | 0.00 | 0.00 | 0.00 | 56 | 1019.7 |
| 20260905190029 | 62 | 231 | 0.0 | 0.0 | 0.00 | 0.00 | 0.00 | 59 | 1019.7 |
| 20260905184535 | 60 | 33 | 0.0 | 1.0 | 0.00 | 0.00 | 0.00 | 62 | 1019.8 |
| 20260905183021 | 58 | 241 | 0.0 | 0.0 | 0.00 | 0.00 | 0.00 | 69 | 1020.1 |
| 20260905181517 | 57 | 279 | 0.0 | 1.0 | 0.00 | 0.00 | 0.00 | 75 | 1020.2 |
| 20260905180016 | 55 | 212 | 0.0 | 0.0 | 0.00 | 0.00 | 0.00 | 76 | 1020.6 |
| 20260905174509 | 53 | 251 | 0.0 | 0.0 | 0.00 | 0.00 | 0.00 | 83 | 1020.5 |
| 20260905173005 | 52 | 249 | 0.0 | 0.0 | 0.00 | 0.00 | 0.00 | 85 | 1020.6 |
| 20260905171501 | 51 | 247 | 0.0 | 0.0 | 0.00 | 0.00 | 0.00 | 87 | 1020.8 |
| 20260905170057 | 49 | 246 | 0.0 | 0.0 | 0.00 | 0.00 | 0.00 | 88 | 1020.8 |
| 20260905164553 | 48 | 231 | 0.0 | 0.0 | 0.00 | 0.00 | 0.00 | 90 | 1021.0 |
| 20260905163050 | 46 | 229 | 0.0 | 0.0 | 0.00 | 0.00 | 0.00 | 91 | 1021.2 |
| 20260905161559 | 45 | 229 | 0.0 | 0.0 | 0.00 | 0.00 | 0.00 | 92 | 1021.2 |
| 20260905160048 | 44 | 229 | 0.0 | 0.0 | 0.00 | 0.00 | 0.00 | 92 | 1021.3 |
| 20260905154552 | 44 | 229 | 0.0 | 0.0 | 0.00 | 0.00 | 0.00 | 92 | 1021.3 |
| 20260905153048 | 43 | 228 | 0.0 | 0.0 | 0.00 | 0.00 | 0.00 | 92 | 1021.3 |
| 20260905151544 | 43 | 228 | 0.0 | 0.0 | 0.00 | 0.00 | 0.00 | 92 | 1021.1 |
| 20260905150042 | 42 | 228 | 0.0 | 0.0 | 0.00 | 0.00 | 0.00 | 92 | 1021.0 |
| 20260905144540 | 42 | 226 | 0.0 | 0.0 | 0.00 | 0.00 | 0.00 | 92 | 1020.9 |
| 20260905143040 | 41 | 226 | 0.0 | 0.0 | 0.00 | 0.00 | 0.00 | 91 | 1020.9 |
| 20260905141538 | 41 | 226 | 0.0 | 0.0 | 0.00 | 0.00 | 0.00 | 91 | 1020.9 |
| 20260905140037 | 41 | 226 | 0.0 | 0.0 | 0.00 | 0.00 | 0.00 | 91 | 1020.8 |
| 20260905134539 | 41 | 226 | 0.0 | 0.0 | 0.00 | 0.00 | 0.00 | 91 | 1020.9 |
| 20260905133034 | 42 | 226 | 0.0 | 0.0 | 0.00 | 0.00 | 0.00 | 91 | 1020.9 |
| 20260905131533 | 42 | 226 | 0.0 | 0.0 | 0.00 | 0.00 | 0.00 | 91 | 1020.8 |
| 20260905130034 | 42 | 226 | 0.0 | 0.0 | 0.00 | 0.00 | 0.00 | 90 | 1020.9 |
| 20260905124533 | 42 | 226 | 0.0 | 0.0 | 0.00 | 0.00 | 0.00 | 91 | 1021.0 |
| 20260905123030 | 42 | 226 | 0.0 | 0.0 | 0.00 | 0.00 | 0.00 | 90 | 1020.9 |
| 20260905121530 | 43 | 226 | 0.0 | 0.0 | 0.00 | 0.00 | 0.00 | 90 | 1020.9 |
| 20260905120029 | 43 | 226 | 0.0 | 0.0 | 0.00 | 0.00 | 0.00 | 90 | 1020.9 |
| 20260905114529 | 42 | 226 | 0.0 | 0.0 | 0.00 | 0.00 | 0.00 | 90 | 1020.8 |
| 20260905113029 | 42 | 226 | 0.0 | 0.0 | 0.00 | 0.00 | 0.00 | 89 | 1021.1 |
| 20260905111526 | 43 | 226 | 0.0 | 0.0 | 0.00 | 0.00 | 0.00 | 89 | 1021.1 |
| 20260905110025 | 43 | 226 | 0.0 | 0.0 | 0.00 | 0.00 | 0.00 | 89 | 1021.0 |
| 20260905104524 | 43 | 226 | 0.0 | 0.0 | 0.00 | 0.01 | 0.00 | 89 | 1021.0 |
| 20260905103023 | 43 | 226 | 0.0 | 0.0 | 0.00 | 0.01 | 0.00 | 89 | 1021.0 |
| 20260905101528 | 44 | 226 | 0.0 | 0.0 | 0.00 | 0.01 | 0.00 | 89 | 1021.1 |
| 20260905100021 | 44 | 226 | 0.0 | 0.0 | 0.00 | 0.01 | 0.00 | 89 | 1021.0 |
| 20260905094520 | 44 | 226 | 0.0 | 0.0 | 0.00 | 0.01 | 0.00 | 88 | 1021.0 |
| 20260905093020 | 44 | 226 | 0.0 | 0.0 | 0.00 | 0.01 | 0.00 | 88 | 1020.9 |
| 20260905091516 | 45 | 226 | 0.0 | 0.0 | 0.00 | 0.01 | 0.00 | 88 | 1021.0 |
| 20260905090017 | 45 | 226 | 0.0 | 0.0 | 0.00 | 0.01 | 0.00 | 88 | 1020.9 |
| 20260905084515 | 45 | 226 | 0.0 | 0.0 | 0.00 | 0.01 | 0.00 | 88 | 1021.0 |
| 20260905083011 | 45 | 226 | 0.0 | 0.0 | 0.00 | 0.01 | 0.00 | 88 | 1021.1 |
| 20260905081519 | 46 | 226 | 0.0 | 0.0 | 0.00 | 0.01 | 0.00 | 87 | 1021.1 |
| 20260905080015 | 46 | 226 | 0.0 | 0.0 | 0.00 | 0.01 | 0.00 | 87 | 1021.0 |
| 20260905074507 | 46 | 226 | 0.0 | 0.0 | 0.00 | 0.01 | 0.00 | 87 | 1020.9 |
| 20260905073004 | 47 | 226 | 0.0 | 0.0 | 0.00 | 0.01 | 0.00 | 86 | 1020.8 |
| 20260905071501 | 47 | 226 | 0.0 | 0.0 | 0.00 | 0.01 | 0.00 | 85 | 1020.7 |
| 20260905070111 | 48 | 226 | 0.0 | 0.0 | 0.00 | 0.01 | 0.00 | 85 | 1020.6 |
| 20260905064559 | 48 | 226 | 0.0 | 0.0 | 0.00 | 0.01 | 0.01 | 86 | 1020.4 |
| 20260905063059 | 48 | 226 | 0.0 | 0.0 | 0.00 | 0.01 | 0.01 | 86 | 1020.4 |
| 20260905061613 | 48 | 226 | 0.0 | 0.0 | 0.00 | 0.01 | 0.01 | 86 | 1020.4 |
| 20260905060057 | 48 | 226 | 0.0 | 0.0 | 0.00 | 0.01 | 0.01 | 85 | 1020.6 |
| 20260905054601 | 49 | 226 | 0.0 | 0.0 | 0.00 | 0.01 | 0.01 | 84 | 1020.5 |
| 20260905053055 | 49 | 226 | 0.0 | 0.0 | 0.00 | 0.01 | 0.01 | 83 | 1020.4 |
| 20260905051555 | 50 | 226 | 0.0 | 0.0 | 0.00 | 0.01 | 0.01 | 82 | 1020.2 |
| 20260905050054 | 50 | 226 | 0.0 | 0.0 | 0.00 | 0.01 | 0.01 | 82 | 1020.3 |
| 20260905044554 | 50 | 226 | 0.0 | 0.0 | 0.00 | 0.01 | 0.01 | 80 | 1020.3 |
| 20260905043052 | 50 | 226 | 0.0 | 0.0 | 0.00 | 0.01 | 0.01 | 79 | 1020.1 |
| 20260905041556 | 51 | 226 | 0.0 | 0.0 | 0.00 | 0.01 | 0.01 | 78 | 1020.0 |
| 20260905040054 | 52 | 226 | 0.0 | 0.0 | 0.00 | 0.01 | 0.01 | 77 | 1020.0 |
| 20260905034549 | 52 | 226 | 0.0 | 0.0 | 0.00 | 0.01 | 0.01 | 75 | 1019.9 |
| 20260905033052 | 54 | 226 | 0.0 | 0.0 | 0.00 | 0.01 | 0.01 | 72 | 1019.6 |
| 20260905031548 | 55 | 226 | 0.0 | 0.0 | 0.00 | 0.01 | 0.01 | 70 | 1019.3 |
| 20260905030048 | 55 | 226 | 0.0 | 0.0 | 0.00 | 0.01 | 0.01 | 70 | 1019.3 |
| 20260905024544 | 56 | 226 | 0.0 | 0.0 | 0.00 | 0.01 | 0.01 | 69 | 1019.2 |
| 20260905023043 | 57 | 226 | 0.0 | 0.0 | 0.00 | 0.01 | 0.01 | 66 | 1019.1 |
| 20260905021542 | 58 | 226 | 0.0 | 0.0 | 0.00 | 0.01 | 0.01 | 66 | 1019.0 |
| 20260905020046 | 58 | 218 | 0.0 | 0.0 | 0.00 | 0.01 | 0.01 | 64 | 1018.9 |
| 20260905014542 | 59 | 164 | 0.0 | 0.0 | 0.00 | 0.01 | 0.01 | 62 | 1019.0 |
| 20260905013040 | 59 | 175 | 0.0 | 0.0 | 0.00 | 0.01 | 0.01 | 62 | 1018.9 |
| 20260905011540 | 60 | 173 | 0.0 | 0.0 | 0.00 | 0.01 | 0.01 | 63 | 1018.7 |
| 20260905010042 | 59 | 180 | 0.0 | 0.0 | 0.00 | 0.01 | 0.01 | 65 | 1018.7 |
| 20260905004540 | 59 | 156 | 0.0 | 0.0 | 0.00 | 0.02 | 0.01 | 63 | 1018.7 |
| 20260905003039 | 59 | 152 | 0.0 | 0.0 | 0.00 | 0.02 | 0.01 | 65 | 1018.5 |
| 20260905001539 | 59 | 137 | 0.0 | 0.0 | 0.00 | 0.02 | 0.01 | 63 | 1018.4 |
| 20260905000041 | 59 | 179 | 0.0 | 0.0 | 0.00 | 0.02 | 0.01 | 61 | 1018.4 |
| 20260904234544 | 59 | 207 | 0.0 | 1.0 | 0.00 | 0.05 | 0.01 | 61 | 1018.3 |
| 20260904233037 | 59 | 128 | 0.0 | 0.0 | 0.00 | 0.05 | 0.01 | 63 | 1018.3 |
| 20260904231536 | 59 | 197 | 0.0 | 0.0 | 0.00 | 0.05 | 0.01 | 62 | 1018.5 |
| 20260904230039 | 59 | 241 | 0.0 | 0.0 | 0.00 | 0.05 | 0.01 | 61 | 1018.6 |
| 20260904224541 | 60 | 170 | 0.0 | 0.0 | 0.00 | 0.05 | 0.01 | 61 | 1018.4 |
| 20260904223035 | 61 | 137 | 0.0 | 0.0 | 0.00 | 0.05 | 0.01 | 62 | 1018.4 |
| 20260904221536 | 61 | 207 | 0.0 | 0.0 | 0.00 | 0.05 | 0.01 | 61 | 1018.4 |
| 20260904220034 | 62 | 186 | 0.0 | 0.0 | 0.00 | 0.05 | 0.01 | 57 | 1018.4 |
| 20260904214533 | 63 | 229 | 0.0 | 1.0 | 0.00 | 0.06 | 0.01 | 57 | 1018.5 |
| 20260904213033 | 63 | 183 | 0.0 | 0.0 | 0.00 | 0.06 | 0.01 | 59 | 1018.3 |